Tracking 35237 objects as of 4-Sep-2026
HD Live streaming from Space Station
objects crossing your sky now

STARLINK-37539

Track STARLINK-37539 now!
10-day predictions
STARLINK-37539 is classified as:


NORAD ID: 68845
Int'l Code: 2026-094G
Launch date: April 26, 2026
Source: United States (US)
Launch site: AIR FORCE WESTERN TEST RANGE (AFWTR)
Your satellite tracking list
Your tracking list is empty




NASA's NSSDC Master Catalog

Two Line Element Set (TLE):
1 68845U 26094G   26246.84649154  .00013699  00000-0  42608-3 0  9994
2 68845  97.2847 260.1793 0001365  90.8162 269.3237 15.33430510 20109
Source of the keplerian elements: AFSPC